TimeCDT,TemperatureF,Dew PointF,Humidity,Sea Level PressureIn,VisibilityMPH,Wind Direction,Wind SpeedMPH,Gust SpeedMPH,PrecipitationIn,Events,Conditions,WindDirDegrees,DateUTC
12:31 AM,33.8,24.8,70,30.37,10.0,North,9.2,-,N/A,,Scattered Clouds,350,2012-10-26 05:31:00
12:54 AM,33.8,24.8,70,30.37,10.0,North,9.2,-,N/A,,Clear,350,2012-10-26 05:54:00
1:54 AM,32.0,25.0,75,30.42,10.0,West,5.8,-,N/A,,Clear,280,2012-10-26 06:54:00
2:54 AM,30.9,24.1,76,30.45,10.0,West,4.6,-,N/A,,Clear,280,2012-10-26 07:54:00
3:54 AM,30.9,24.1,76,30.45,10.0,WNW,8.1,-,N/A,,Clear,300,2012-10-26 08:54:00
4:54 AM,30.0,24.1,79,30.47,10.0,NNW,6.9,-,N/A,,Partly Cloudy,330,2012-10-26 09:54:00
5:54 AM,30.0,26.1,85,30.48,10.0,North,3.5,-,N/A,,Overcast,360,2012-10-26 10:54:00
6:54 AM,34.0,27.0,75,30.49,10.0,North,9.2,-,N/A,,Overcast,360,2012-10-26 11:54:00
7:54 AM,35.1,26.1,70,30.51,10.0,North,9.2,-,N/A,,Overcast,350,2012-10-26 12:54:00
8:54 AM,36.0,25.0,64,30.53,10.0,North,10.4,-,N/A,,Overcast,360,2012-10-26 13:54:00
9:54 AM,36.0,24.1,62,30.56,10.0,North,10.4,-,N/A,,Overcast,350,2012-10-26 14:54:00
10:54 AM,37.0,24.1,59,30.57,10.0,North,9.2,-,N/A,,Overcast,360,2012-10-26 15:54:00
11:54 AM,39.0,25.0,57,30.56,10.0,NNE,9.2,-,N/A,,Overcast,20,2012-10-26 16:54:00
12:54 PM,41.0,25.0,53,30.55,10.0,North,6.9,16.1,N/A,,Mostly Cloudy,350,2012-10-26 17:54:00
1:54 PM,41.0,24.1,51,30.53,10.0,NNW,8.1,-,N/A,,Overcast,340,2012-10-26 18:54:00
2:54 PM,42.1,24.1,49,30.51,10.0,NW,10.4,17.3,N/A,,Overcast,320,2012-10-26 19:54:00
3:54 PM,41.0,25.0,53,30.50,10.0,NNW,9.2,-,N/A,,Mostly Cloudy,340,2012-10-26 20:54:00
4:54 PM,41.0,24.1,51,30.48,10.0,NW,8.1,-,N/A,,Scattered Clouds,320,2012-10-26 21:54:00
5:54 PM,41.0,23.0,49,30.47,10.0,NNW,9.2,-,N/A,,Scattered Clouds,340,2012-10-26 22:54:00
6:54 PM,34.0,23.0,64,30.47,10.0,North,4.6,-,N/A,,Clear,360,2012-10-26 23:54:00
7:54 PM,36.0,23.0,59,30.48,10.0,NNW,5.8,-,N/A,,Clear,330,2012-10-27 00:54:00
8:54 PM,28.0,21.9,78,30.50,8.0,NNW,3.5,-,N/A,,Clear,330,2012-10-27 01:54:00
9:54 PM,26.1,21.0,81,30.49,10.0,NNW,3.5,-,N/A,,Clear,340,2012-10-27 02:54:00
10:54 PM,25.0,21.0,85,30.48,10.0,NNW,3.5,-,N/A,,Clear,340,2012-10-27 03:54:00
11:54 PM,24.8,21.2,86,30.44,10.0,Calm,Calm,-,N/A,,Clear,0,2012-10-27 04:54:00